WNISAT-1

Last updated on Sun Dec 14 2025 00:03:49 GMT+0000 (Coordinated Universal Time)

1 39423U 13066H 25346.73245953 .00001655 00000+0 30925-3 0 9993 2 39423 97.6929 144.4685 0165450 99.1638 262.8320 14.57642382639568
UTC large
Height (km)
Speed (km/s)
/
Latitude / Longitude
Inclination (degrees)
Orbital Period (minutes)
Azimuth
Elevation
Range (km)
Doppler Factor

Next 0 passes for location: London (51.5072 / 0.1276)

Sorry there are no passes over London.